Tracking 31027 objects as of 19-Jul-2025
HD Live streaming from Space Station
objects crossing your sky now

DMSP 5D-3 F18 DEB

Track DMSP 5D-3 F18 DEB now!
10-day predictions


NORAD ID: 36099
Int'l Code: 2009-057E
Perigee: 765.1 km
Apogee: 775.3 km
Inclination: 98.6 °
Period: 100.1 minutes
Semi major axis: 7141 km
RCS: 0.1565 m2 (medium)
Launch date: October 18, 2009
Source: United States (US)
Launch site: AIR FORCE WESTERN TEST RANGE (AFWTR)

Note: This is SATELLITE DEBRIS
Your satellite tracking list
STARLINK-4010
Track 1 satellite(s)




NASA's NSSDC Master Catalog

Two Line Element Set (TLE):
1 36099U 09057E   25199.50945069  .00003879  00000-0  12803-2 0  9995
2 36099  98.6429 284.7651 0007193 245.6208 114.4228 14.38618899812254
Source of the keplerian elements: AFSPC